START_TIME,STEP,MOV.,H8,t_acc.,H43,t_acc.,M25,t_acc.,H9,t_acc.
1979-07-13 00:00:29.860 ,0,0,0.,12.0,0.,12.0,0.,12.0,0.,12.0
1979-07-13 00:00:41.860 ,0,0,0.,12.0,0.,12.0,0.,12.0,0.,12.0
1979-07-13 00:00:53.860 ,1,0,0.,12.0,0.,12.0,0.,12.0,0.,12.0
1979-07-13 00:01:05.860 ,1,0,0.,12.0,0.,12.0,0.,12.0,0.,12.0
1979-07-13 00:01:17.860 ,1,0,0.,12.0,0.,12.0,0.,12.0,0.,12.0
1979-07-13 00:01:29.860 ,1,0,0.,12.0,0.,12.0,0.,12.0,0.,12.0
1979-07-13 00:01:41.860 ,2,0,0.,12.0,0.,12.0,0.,12.0,0.,12.0
1979-07-13 00:01:53.860 ,2,0,0.,12.0,0.,12.0,0.,12.0,0.,12.0
1979-07-13 00:02:05.860 ,2,0,0.,12.0,0.,12.0,0.,12.0,0.,12.0
1979-07-13 00:02:17.860 ,2,0,0.,12.0,0.,12.0,0.,12.0,0.,12.0
1979-07-13 00:02:29.860 ,3,0,0.,12.0,0.,12.0,0.,12.0,0.,12.0
1979-07-13 00:02:41.860 ,3,0,0.,12.0,0.,12.0,0.,12.0,0.,12.0
1979-07-13 00:02:53.860 ,3,0,0.,12.0,0.,12.0,0.,12.0,0.,12.0
1979-07-13 00:03:05.860 ,3,0,0.,12.0,0.,12.0,0.,12.0,0.,12.0
1979-07-13 00:03:17.860 ,4,0,0.,12.0,0.,12.0,0.,12.0,0.,12.0
1979-07-13 00:03:29.860 ,4,0,0.,12.0,0.,12.0,0.,12.0,0.,12.0
1979-07-13 00:03:41.860 ,4,0,0.,12.0,0.,12.0,0.,12.0,0.,12.0
1979-07-13 00:03:53.860 ,4,0,0.,12.0,0.,12.0,0.,12.0,0.,12.0
1979-07-13 00:04:05.860 ,5,0,0.,12.0,0.,12.0,0.,12.0,0.,12.0
1979-07-13 00:04:17.860 ,5,0,0.,12.0,0.,12.0,0.,12.0,0.,12.0
1979-07-13 00:04:29.860 ,5,0,0.,12.0,0.,12.0,0.,12.0,0.,12.0
1979-07-13 00:04:41.860 ,5,0,0.,12.0,0.,12.0,0.,12.0,0.,12.0
1979-07-13 00:04:53.860 ,6,0,0.,12.0,0.,12.0,0.,12.0,0.,12.0
1979-07-13 00:05:05.860 ,6,0,0.,12.0,0.,12.0,0.,12.0,0.,12.0
1979-07-13 00:05:17.860 ,6,0,0.,12.0,0.,12.0,0.,12.0,0.,12.0
1979-07-13 00:05:29.860 ,6,0,0.,12.0,0.,12.0,0.,12.0,0.,12.0
1979-07-13 00:05:41.860 ,7,0,0.,12.0,0.,12.0,0.,12.0,0.,12.0
1979-07-13 00:05:53.860 ,7,0,0.,12.0,0.,12.0,0.,12.0,0.,12.0
1979-07-13 00:06:05.860 ,7,0,0.,12.0,0.,12.0,0.,12.0,0.,12.0
1979-07-13 00:06:17.860 ,7,0,0.,12.0,0.,12.0,0.,12.0,0.,12.0
1979-07-13 00:06:29.860 ,7,0,0.,12.0,0.,12.0,0.,12.0,0.,12.0
1979-07-13 00:06:41.860 ,7,0,0.,12.0,0.,12.0,0.,12.0,0.,12.0
1979-07-13 00:06:53.860 ,7,0,0.,12.0,0.,12.0,0.,12.0,0.,12.0
1979-07-13 00:07:05.860 ,7,0,0.,12.0,0.,12.0,0.,12.0,0.,12.0
1979-07-13 00:07:17.860 ,6,0,0.,12.0,0.,12.0,0.,12.0,0.,12.0
1979-07-13 00:07:29.860 ,6,0,0.,12.0,0.,12.0,0.,12.0,0.,12.0
1979-07-13 00:07:41.860 ,6,0,0.,12.0,0.,12.0,0.,12.0,0.,12.0
1979-07-13 00:07:53.860 ,6,0,0.,12.0,0.,12.0,0.,12.0,0.,12.0
1979-07-13 00:08:05.860 ,5,0,0.,12.0,0.,12.0,0.,12.0,0.,12.0
1979-07-13 00:08:17.860 ,5,0,0.,12.0,0.,12.0,0.,12.0,0.,12.0
1979-07-13 00:08:29.860 ,5,0,0.,12.0,0.,12.0,0.,12.0,0.,12.0
1979-07-13 00:08:41.860 ,5,0,1.,12.0,0.,12.0,0.,12.0,0.,12.0
1979-07-13 00:08:53.860 ,4,0,0.,12.0,0.,12.0,0.,12.0,0.,12.0
1979-07-13 00:09:05.860 ,4,0,0.,12.0,0.,12.0,0.,12.0,0.,12.0
1979-07-13 00:09:17.860 ,4,0,0.,12.0,0.,12.0,0.,12.0,0.,12.0
1979-07-13 00:09:29.860 ,4,0,0.,12.0,0.,12.0,0.,12.0,0.,12.0
1979-07-13 00:09:41.860 ,3,0,0.,12.0,0.,12.0,0.,12.0,0.,12.0
1979-07-13 00:09:53.860 ,3,0,1.,12.0,0.,12.0,0.,12.0,0.,12.0
1979-07-13 00:10:05.860 ,3,0,0.,12.0,0.,12.0,0.,12.0,0.,12.0
1979-07-13 00:10:17.860 ,3,0,0.,12.0,0.,12.0,0.,12.0,0.,12.0
1979-07-13 00:10:29.860 ,2,0,1.,12.0,0.,12.0,0.,12.0,0.,12.0
1979-07-13 00:10:41.860 ,2,0,0.,12.0,0.,12.0,0.,12.0,0.,12.0
1979-07-13 00:10:53.860 ,2,0,0.,12.0,0.,12.0,0.,12.0,0.,12.0
1979-07-13 00:11:05.860 ,2,0,0.,12.0,0.,12.0,0.,12.0,0.,12.0
1979-07-13 00:11:17.860 ,1,0,0.,12.0,0.,12.0,0.,12.0,0.,12.0
1979-07-13 00:11:29.860 ,1,0,0.,12.0,0.,12.0,0.,12.0,0.,12.0
1979-07-13 00:11:41.860 ,1,0,0.,12.0,0.,12.0,0.,12.0,0.,12.0
1979-07-13 00:11:53.860 ,1,0,0.,12.0,0.,12.0,0.,12.0,0.,12.0
1979-07-13 00:12:05.860 ,0,0,0.,12.0,0.,12.0,0.,12.0,0.,12.0
1979-07-13 00:12:17.860 ,0,0,0.,12.0,0.,12.0,0.,12.0,0.,12.0
1979-07-13 00:12:29.860 ,0,0,0.,12.0,0.,12.0,0.,12.0,0.,12.0
1979-07-13 00:12:41.860 ,0,0,0.,12.0,0.,12.0,0.,12.0,0.,12.0
1979-07-13 00:12:53.860 ,0,0,0.,12.0,0.,12.0,0.,12.0,0.,12.0
1979-07-13 00:13:05.860 ,0,0,0.,12.0,0.,12.0,0.,12.0,0.,12.0
1979-07-13 00:13:17.860 ,0,0,0.,12.0,0.,12.0,0.,12.0,0.,12.0
1979-07-13 00:13:29.860 ,0,0,0.,12.0,0.,12.0,0.,12.0,0.,12.0
1979-07-13 00:13:41.860 ,1,0,0.,12.0,0.,12.0,0.,12.0,0.,12.0
1979-07-13 00:13:53.860 ,1,0,0.,12.0,0.,12.0,0.,12.0,0.,12.0
1979-07-13 00:14:05.860 ,1,0,0.,12.0,0.,12.0,0.,12.0,0.,12.0
1979-07-13 00:14:17.860 ,1,0,0.,12.0,0.,12.0,0.,12.0,0.,12.0
1979-07-13 00:14:29.860 ,2,0,0.,12.0,0.,12.0,0.,12.0,0.,12.0
1979-07-13 00:14:41.860 ,2,0,0.,12.0,0.,12.0,0.,12.0,0.,12.0
1979-07-13 00:14:53.860 ,2,0,0.,12.0,0.,12.0,0.,12.0,0.,12.0
1979-07-13 00:15:05.860 ,2,0,0.,12.0,0.,12.0,0.,12.0,0.,12.0
1979-07-13 00:15:17.860 ,3,0,0.,12.0,0.,12.0,0.,12.0,0.,12.0
1979-07-13 00:15:29.860 ,3,0,0.,12.0,0.,12.0,0.,12.0,0.,12.0
1979-07-13 00:15:41.860 ,3,0,0.,12.0,0.,12.0,0.,12.0,0.,12.0
1979-07-13 00:15:53.860 ,3,0,0.,12.0,0.,12.0,0.,12.0,0.,12.0
1979-07-13 00:16:05.860 ,4,0,0.,12.0,0.,12.0,0.,12.0,0.,12.0
1979-07-13 00:16:17.860 ,4,0,0.,12.0,0.,12.0,0.,12.0,0.,12.0
1979-07-13 00:16:29.860 ,4,0,1.,12.0,0.,12.0,0.,12.0,0.,12.0
1979-07-13 00:16:41.860 ,4,0,0.,12.0,0.,12.0,0.,12.0,0.,12.0
1979-07-13 00:16:53.860 ,5,0,0.,12.0,0.,12.0,0.,12.0,0.,12.0
1979-07-13 00:17:05.860 ,5,0,0.,12.0,0.,12.0,0.,12.0,0.,12.0
1979-07-13 00:17:17.860 ,5,0,0.,12.0,0.,12.0,0.,12.0,0.,12.0
1979-07-13 00:17:29.860 ,5,0,0.,12.0,0.,12.0,0.,12.0,0.,12.0
1979-07-13 00:17:41.860 ,6,0,0.,12.0,0.,12.0,0.,12.0,0.,12.0
1979-07-13 00:17:53.860 ,6,0,1.,12.0,0.,12.0,0.,12.0,0.,12.0
1979-07-13 00:18:05.860 ,6,0,0.,12.0,0.,12.0,0.,12.0,0.,12.0
1979-07-13 00:18:17.860 ,6,0,0.,12.0,0.,12.0,0.,12.0,0.,12.0
1979-07-13 00:18:29.860 ,7,0,0.,12.0,0.,12.0,0.,12.0,0.,12.0
1979-07-13 00:18:41.860 ,7,0,0.,12.0,0.,12.0,0.,12.0,0.,12.0
1979-07-13 00:18:53.860 ,7,0,0.,12.0,0.,12.0,0.,12.0,0.,12.0
1979-07-13 00:19:05.860 ,7,0,0.,12.0,0.,12.0,0.,12.0,0.,12.0
1979-07-13 00:19:17.860 ,3,1,0.,12.0,0.,12.0,0.,12.0,0.,12.0
1979-07-13 00:19:29.860 ,3,1,0.,12.0,0.,12.0,0.,12.0,0.,12.0
1979-07-13 00:19:41.860 ,0,1,0.,12.0,0.,12.0,0.,12.0,0.,12.0
1979-07-13 00:19:53.860 ,0,1,0.,12.0,0.,12.0,0.,12.0,0.,12.0
1979-07-13 00:20:05.860 ,4,1,0.,12.0,0.,12.0,0.,12.0,0.,12.0
1979-07-13 00:20:17.860 ,4,1,0.,12.0,0.,12.0,0.,12.0,0.,12.0
1979-07-13 00:20:29.860 ,7,1,0.,12.0,0.,12.0,0.,12.0,0.,12.0
1979-07-13 00:20:41.860 ,7,1,0.,12.0,0.,12.0,0.,12.0,0.,12.0
1979-07-13 00:20:53.860 ,3,1,0.,12.0,0.,12.0,0.,12.0,0.,12.0
1979-07-13 00:21:05.860 ,3,1,0.,12.0,0.,12.0,0.,12.0,0.,12.0
1979-07-13 00:21:17.860 ,0,1,0.,12.0,0.,12.0,0.,12.0,0.,12.0
1979-07-13 00:21:29.860 ,0,1,0.,12.0,0.,12.0,0.,12.0,0.,12.0
1979-07-13 00:21:41.860 ,4,1,0.,12.0,0.,12.0,0.,12.0,0.,12.0
1979-07-13 00:21:53.860 ,4,1,1.,12.0,0.,12.0,0.,12.0,0.,12.0
1979-07-13 00:22:05.860 ,7,1,0.,12.0,0.,12.0,0.,12.0,0.,12.0
1979-07-13 00:22:17.860 ,7,1,0.,12.0,0.,12.0,0.,12.0,0.,12.0
1979-07-13 00:22:29.860 ,3,1,0.,12.0,0.,12.0,0.,12.0,0.,12.0
1979-07-13 00:22:41.860 ,3,1,1.,12.0,0.,12.0,0.,12.0,0.,12.0
1979-07-13 00:22:53.860 ,0,1,1.,12.0,0.,12.0,0.,12.0,0.,12.0
1979-07-13 00:23:05.860 ,0,1,0.,12.0,0.,12.0,0.,12.0,0.,12.0
1979-07-13 00:23:17.860 ,4,1,0.,12.0,0.,12.0,0.,12.0,0.,12.0
1979-07-13 00:23:29.860 ,4,1,0.,12.0,0.,12.0,0.,12.0,0.,12.0
1979-07-13 00:23:41.860 ,7,1,0.,12.0,0.,12.0,0.,12.0,0.,12.0
1979-07-13 00:23:53.860 ,7,1,1.,12.0,0.,12.0,0.,12.0,0.,12.0
1979-07-13 00:24:05.860 ,3,1,0.,12.0,0.,12.0,0.,12.0,0.,12.0
1979-07-13 00:24:17.860 ,3,1,0.,12.0,0.,12.0,0.,12.0,0.,12.0
1979-07-13 00:24:29.860 ,0,1,0.,12.0,0.,12.0,0.,12.0,0.,12.0
1979-07-13 00:24:41.860 ,0,1,0.,12.0,0.,12.0,0.,12.0,0.,12.0
1979-07-13 00:24:53.860 ,4,1,0.,12.0,0.,12.0,0.,12.0,0.,12.0
1979-07-13 00:25:05.860 ,4,1,0.,12.0,0.,12.0,0.,12.0,0.,12.0
1979-07-13 00:25:17.860 ,7,1,0.,12.0,0.,12.0,0.,12.0,0.,12.0
1979-07-13 00:25:29.860 ,7,1,0.,12.0,0.,12.0,0.,12.0,0.,12.0
1979-07-13 00:25:41.860 ,3,1,0.,12.0,0.,12.0,0.,12.0,0.,12.0
1979-07-13 00:25:53.860 ,3,1,1.,12.0,1.,12.0,0.,12.0,0.,12.0
1979-07-13 00:26:05.860 ,0,1,0.,12.0,0.,12.0,0.,12.0,0.,12.0
1979-07-13 00:26:17.860 ,0,1,0.,12.0,0.,12.0,0.,12.0,0.,12.0
1979-07-13 00:26:29.860 ,4,1,1.,12.0,0.,12.0,0.,12.0,0.,12.0
1979-07-13 00:26:41.860 ,4,1,0.,12.0,0.,12.0,0.,12.0,0.,12.0
1979-07-13 00:26:53.860 ,7,1,1.,12.0,0.,12.0,0.,12.0,0.,12.0
1979-07-13 00:27:05.860 ,7,1,0.,12.0,0.,12.0,0.,12.0,0.,12.0
1979-07-13 00:27:17.860 ,3,1,0.,12.0,0.,12.0,0.,12.0,0.,12.0
1979-07-13 00:27:29.860 ,3,1,0.,12.0,0.,12.0,0.,12.0,0.,12.0
1979-07-13 00:27:41.860 ,0,1,0.,12.0,0.,12.0,0.,12.0,0.,12.0
1979-07-13 00:27:53.860 ,0,1,0.,12.0,0.,12.0,0.,12.0,0.,12.0
1979-07-13 00:28:05.860 ,4,1,0.,12.0,0.,12.0,0.,12.0,0.,12.0
1979-07-13 00:28:17.860 ,4,1,0.,12.0,0.,12.0,0.,12.0,0.,12.0
1979-07-13 00:28:29.860 ,7,1,0.,12.0,0.,12.0,0.,12.0,0.,12.0
1979-07-13 00:28:41.860 ,7,1,0.,12.0,0.,12.0,0.,12.0,0.,12.0
1979-07-13 00:28:53.860 ,3,1,0.,12.0,0.,12.0,0.,12.0,0.,12.0
1979-07-13 00:29:05.860 ,3,1,0.,12.0,0.,12.0,0.,12.0,0.,12.0
1979-07-13 00:29:17.860 ,0,1,0.,12.0,0.,12.0,0.,12.0,0.,12.0
1979-07-13 00:29:29.860 ,0,1,0.,12.0,0.,12.0,0.,12.0,0.,12.0
1979-07-13 00:29:41.860 ,0,0,0.,12.0,0.,12.0,0.,12.0,0.,12.0
1979-07-13 00:29:53.860 ,0,0,0.,12.0,0.,12.0,0.,12.0,0.,12.0
1979-07-13 00:30:05.860 ,0,0,0.,12.0,0.,12.0,0.,12.0,0.,12.0
1979-07-13 00:30:17.860 ,0,0,0.,12.0,0.,12.0,0.,12.0,0.,12.0
1979-07-13 00:30:29.860 ,5,0,0.,12.0,0.,12.0,0.,12.0,0.,12.0
1979-07-13 00:30:41.860 ,5,0,0.,12.0,0.,12.0,0.,12.0,0.,12.0
1979-07-13 00:30:53.860 ,5,0,1.,12.0,0.,12.0,0.,12.0,0.,12.0
1979-07-13 00:31:05.860 ,5,0,0.,12.0,0.,12.0,0.,12.0,0.,12.0
1979-07-13 00:31:17.860 ,4,0,0.,12.0,0.,12.0,0.,12.0,0.,12.0
1979-07-13 00:31:29.860 ,4,0,0.,12.0,0.,12.0,0.,12.0,0.,12.0
1979-07-13 00:31:41.860 ,4,0,0.,12.0,0.,12.0,0.,12.0,0.,12.0
1979-07-13 00:31:53.860 ,4,0,0.,12.0,0.,12.0,0.,12.0,0.,12.0
1979-07-13 00:32:05.860 ,3,0,0.,12.0,0.,12.0,0.,12.0,0.,12.0
1979-07-13 00:32:17.860 ,3,0,0.,12.0,0.,12.0,0.,12.0,0.,12.0
1979-07-13 00:32:29.860 ,3,0,0.,12.0,0.,12.0,0.,12.0,0.,12.0
1979-07-13 00:32:41.860 ,3,0,0.,12.0,0.,12.0,0.,12.0,0.,12.0
1979-07-13 00:32:53.860 ,2,0,0.,12.0,0.,12.0,0.,12.0,0.,12.0
1979-07-13 00:33:05.860 ,2,0,0.,12.0,0.,12.0,0.,12.0,0.,12.0
1979-07-13 00:33:17.860 ,2,0,0.,12.0,0.,12.0,0.,12.0,0.,12.0
1979-07-13 00:33:29.860 ,2,0,0.,12.0,0.,12.0,0.,12.0,0.,12.0
1979-07-13 00:33:41.860 ,1,0,1.,12.0,0.,12.0,0.,12.0,0.,12.0
1979-07-13 00:33:53.860 ,1,0,0.,12.0,0.,12.0,0.,12.0,0.,12.0
1979-07-13 00:34:05.860 ,1,0,0.,12.0,0.,12.0,0.,12.0,0.,12.0
1979-07-13 00:34:17.860 ,1,0,0.,12.0,0.,12.0,0.,12.0,0.,12.0
1979-07-13 00:34:29.860 ,0,0,0.,12.0,0.,12.0,0.,12.0,0.,12.0
1979-07-13 00:34:41.860 ,0,0,0.,12.0,0.,12.0,0.,12.0,0.,12.0
1979-07-13 00:34:53.860 ,0,0,0.,12.0,0.,12.0,0.,12.0,0.,12.0
1979-07-13 00:35:05.860 ,0,0,0.,12.0,0.,12.0,0.,12.0,0.,12.0
1979-07-13 00:35:17.860 ,0,0,0.,12.0,0.,12.0,0.,12.0,0.,12.0
1979-07-13 00:35:29.860 ,0,0,0.,12.0,0.,12.0,0.,12.0,0.,12.0
1979-07-13 00:35:41.860 ,0,0,0.,12.0,0.,12.0,0.,12.0,0.,12.0
1979-07-13 00:35:53.860 ,0,0,0.,12.0,0.,12.0,0.,12.0,0.,12.0
1979-07-13 00:36:05.860 ,1,0,0.,12.0,0.,12.0,0.,12.0,0.,12.0
1979-07-13 00:36:17.860 ,1,0,0.,12.0,0.,12.0,0.,12.0,0.,12.0
1979-07-13 00:36:29.860 ,1,0,0.,12.0,0.,12.0,0.,12.0,0.,12.0
1979-07-13 00:36:41.860 ,1,0,0.,12.0,0.,12.0,0.,12.0,0.,12.0
1979-07-13 00:36:53.860 ,2,0,1.,12.0,0.,12.0,0.,12.0,0.,12.0
1979-07-13 00:37:05.860 ,2,0,0.,12.0,0.,12.0,0.,12.0,0.,12.0
1979-07-13 00:37:17.860 ,2,0,1.,12.0,0.,12.0,0.,12.0,0.,12.0
1979-07-13 00:37:29.860 ,2,0,0.,12.0,0.,12.0,0.,12.0,0.,12.0
1979-07-13 00:37:41.860 ,3,0,0.,12.0,0.,12.0,0.,12.0,0.,12.0
1979-07-13 00:37:53.860 ,3,0,0.,12.0,0.,12.0,0.,12.0,0.,12.0
1979-07-13 00:38:05.860 ,3,0,1.,12.0,0.,12.0,0.,12.0,0.,12.0
1979-07-13 00:38:17.860 ,3,0,0.,12.0,0.,12.0,0.,12.0,0.,12.0
1979-07-13 00:38:29.860 ,4,0,1.,12.0,0.,12.0,0.,12.0,0.,12.0
1979-07-13 00:38:41.860 ,4,0,0.,12.0,0.,12.0,0.,12.0,0.,12.0
1979-07-13 00:38:53.860 ,4,0,0.,12.0,0.,12.0,0.,12.0,0.,12.0
1979-07-13 00:39:05.860 ,4,0,0.,12.0,0.,12.0,0.,12.0,0.,12.0
1979-07-13 00:39:17.860 ,5,0,0.,12.0,0.,12.0,0.,12.0,0.,12.0
1979-07-13 00:39:29.860 ,5,0,1.,12.0,0.,12.0,0.,12.0,1.,12.0
1979-07-13 00:39:41.860 ,5,0,0.,12.0,0.,12.0,0.,12.0,0.,12.0
1979-07-13 00:39:53.860 ,5,0,0.,12.0,0.,12.0,0.,12.0,0.,12.0
1979-07-13 00:40:05.860 ,6,0,0.,12.0,0.,12.0,0.,12.0,0.,12.0
1979-07-13 00:40:17.860 ,6,0,0.,12.0,0.,12.0,0.,12.0,0.,12.0
1979-07-13 00:40:29.860 ,6,0,0.,12.0,0.,12.0,0.,12.0,0.,12.0
1979-07-13 00:40:41.860 ,6,0,0.,12.0,0.,12.0,0.,12.0,0.,12.0
1979-07-13 00:40:53.860 ,7,0,0.,12.0,0.,12.0,0.,12.0,0.,12.0
1979-07-13 00:41:05.860 ,7,0,0.,12.0,0.,12.0,0.,12.0,0.,12.0
1979-07-13 00:41:17.860 ,7,0,0.,12.0,0.,12.0,0.,12.0,0.,12.0
1979-07-13 00:41:29.860 ,7,0,0.,12.0,0.,12.0,0.,12.0,0.,12.0
1979-07-13 00:41:41.860 ,7,0,0.,12.0,0.,12.0,0.,12.0,0.,12.0
1979-07-13 00:41:53.860 ,7,0,0.,12.0,0.,12.0,0.,12.0,0.,12.0
1979-07-13 00:42:05.860 ,7,0,0.,12.0,0.,12.0,0.,12.0,0.,12.0
1979-07-13 00:42:17.860 ,7,0,0.,12.0,0.,12.0,0.,12.0,0.,12.0
1979-07-13 00:42:29.860 ,6,0,0.,12.0,0.,12.0,0.,12.0,0.,12.0
1979-07-13 00:42:41.860 ,6,0,0.,12.0,0.,12.0,0.,12.0,0.,12.0
1979-07-13 00:42:53.860 ,6,0,0.,12.0,0.,12.0,0.,12.0,0.,12.0
1979-07-13 00:43:05.860 ,6,0,0.,12.0,0.,12.0,0.,12.0,0.,12.0
1979-07-13 00:43:17.860 ,5,0,0.,12.0,0.,12.0,0.,12.0,0.,12.0
1979-07-13 00:43:29.860 ,5,0,0.,12.0,0.,12.0,0.,12.0,0.,12.0
1979-07-13 00:43:41.860 ,5,0,0.,12.0,0.,12.0,0.,12.0,0.,12.0
1979-07-13 00:43:53.860 ,5,0,0.,12.0,0.,12.0,0.,12.0,0.,12.0
1979-07-13 00:44:05.860 ,4,0,0.,12.0,0.,12.0,0.,12.0,0.,12.0
1979-07-13 00:44:17.860 ,4,0,0.,12.0,0.,12.0,0.,12.0,0.,12.0
1979-07-13 00:44:29.860 ,4,0,0.,12.0,0.,12.0,0.,12.0,0.,12.0
1979-07-13 00:44:41.860 ,4,0,0.,12.0,0.,12.0,0.,12.0,0.,12.0
1979-07-13 00:44:53.860 ,3,0,0.,12.0,0.,12.0,0.,12.0,0.,12.0
1979-07-13 00:45:05.860 ,3,0,0.,12.0,0.,12.0,0.,12.0,0.,12.0
1979-07-13 00:45:17.860 ,3,0,0.,12.0,0.,12.0,0.,12.0,0.,12.0
1979-07-13 00:45:29.860 ,3,0,0.,12.0,0.,12.0,0.,12.0,0.,12.0
1979-07-13 00:45:41.860 ,2,0,0.,12.0,0.,12.0,0.,12.0,0.,12.0
1979-07-13 00:45:53.860 ,2,0,0.,12.0,0.,12.0,0.,12.0,0.,12.0
1979-07-13 00:46:05.860 ,2,0,0.,12.0,0.,12.0,0.,12.0,0.,12.0
1979-07-13 00:46:17.860 ,2,0,0.,12.0,0.,12.0,0.,12.0,0.,12.0
1979-07-13 00:46:29.860 ,1,0,1.,12.0,0.,12.0,0.,12.0,0.,12.0
1979-07-13 00:46:41.860 ,1,0,0.,12.0,0.,12.0,0.,12.0,0.,12.0
1979-07-13 00:46:53.860 ,1,0,0.,12.0,0.,12.0,0.,12.0,0.,12.0
1979-07-13 00:47:05.860 ,1,0,1.,12.0,0.,12.0,0.,12.0,0.,12.0
1979-07-13 00:47:17.860 ,0,0,0.,12.0,0.,12.0,0.,12.0,0.,12.0
1979-07-13 00:47:29.860 ,0,0,0.,12.0,0.,12.0,0.,12.0,0.,12.0
1979-07-13 00:47:41.860 ,0,0,0.,12.0,0.,12.0,0.,12.0,0.,12.0
1979-07-13 00:47:53.860 ,0,0,0.,12.0,0.,12.0,0.,12.0,0.,12.0
1979-07-13 00:48:05.860 ,0,0,0.,12.0,0.,12.0,0.,12.0,0.,12.0
1979-07-13 00:48:17.860 ,0,0,0.,12.0,0.,12.0,0.,12.0,0.,12.0
1979-07-13 00:48:29.860 ,0,0,0.,12.0,0.,12.0,0.,12.0,0.,12.0
1979-07-13 00:48:41.860 ,0,0,0.,12.0,0.,12.0,0.,12.0,0.,12.0
1979-07-13 00:48:53.860 ,1,0,0.,12.0,0.,12.0,0.,12.0,0.,12.0
1979-07-13 00:49:05.860 ,1,0,0.,12.0,0.,12.0,0.,12.0,0.,12.0
1979-07-13 00:49:17.860 ,1,0,0.,12.0,0.,12.0,0.,12.0,0.,12.0
1979-07-13 00:49:29.860 ,1,0,0.,12.0,0.,12.0,0.,12.0,0.,12.0
1979-07-13 00:49:41.860 ,2,0,0.,12.0,0.,12.0,0.,12.0,0.,12.0
1979-07-13 00:49:53.860 ,2,0,0.,12.0,0.,12.0,0.,12.0,0.,12.0
1979-07-13 00:50:05.860 ,2,0,0.,12.0,0.,12.0,0.,12.0,0.,12.0
1979-07-13 00:50:17.860 ,2,0,0.,12.0,0.,12.0,0.,12.0,0.,12.0
1979-07-13 00:50:29.860 ,3,0,0.,12.0,0.,12.0,0.,12.0,0.,12.0
1979-07-13 00:50:41.860 ,3,0,1.,12.0,0.,12.0,0.,12.0,0.,12.0
1979-07-13 00:50:53.860 ,3,0,0.,12.0,0.,12.0,0.,12.0,0.,12.0
1979-07-13 00:51:05.860 ,3,0,0.,12.0,0.,12.0,0.,12.0,0.,12.0
1979-07-13 00:51:17.860 ,4,0,0.,12.0,0.,12.0,0.,12.0,0.,12.0
1979-07-13 00:51:29.860 ,4,0,0.,12.0,0.,12.0,0.,12.0,0.,12.0
1979-07-13 00:51:41.860 ,4,0,0.,12.0,0.,12.0,0.,12.0,0.,12.0
1979-07-13 00:51:53.860 ,4,0,0.,12.0,0.,12.0,0.,12.0,0.,12.0
1979-07-13 00:52:05.850 ,5,0,0.,12.0,0.,12.0,0.,12.0,0.,12.0
1979-07-13 00:52:17.850 ,5,0,0.,12.0,0.,12.0,0.,12.0,0.,12.0
1979-07-13 00:52:29.850 ,5,0,0.,12.0,0.,12.0,0.,12.0,0.,12.0
1979-07-13 00:52:41.850 ,5,0,0.,12.0,0.,12.0,0.,12.0,0.,12.0
1979-07-13 00:52:53.850 ,6,0,0.,12.0,0.,12.0,0.,12.0,0.,12.0
1979-07-13 00:53:05.850 ,6,0,0.,12.0,0.,12.0,0.,12.0,0.,12.0
1979-07-13 00:53:17.850 ,6,0,0.,12.0,0.,12.0,0.,12.0,0.,12.0
1979-07-13 00:53:29.850 ,6,0,0.,12.0,0.,12.0,0.,12.0,0.,12.0
1979-07-13 00:53:41.850 ,7,0,0.,12.0,0.,12.0,0.,12.0,0.,12.0
1979-07-13 00:53:53.850 ,7,0,0.,12.0,0.,12.0,0.,12.0,0.,12.0
1979-07-13 00:54:05.850 ,7,0,0.,12.0,0.,12.0,0.,12.0,0.,12.0
1979-07-13 00:54:17.850 ,7,0,0.,12.0,0.,12.0,0.,12.0,0.,12.0
1979-07-13 00:54:29.850 ,7,0,0.,12.0,0.,12.0,0.,12.0,0.,12.0
1979-07-13 00:54:41.850 ,7,0,0.,12.0,0.,12.0,0.,12.0,0.,12.0
1979-07-13 00:54:53.850 ,7,0,0.,12.0,0.,12.0,0.,12.0,0.,12.0
1979-07-13 00:55:05.850 ,7,0,0.,12.0,0.,12.0,0.,12.0,0.,12.0
1979-07-13 00:55:17.850 ,6,0,0.,12.0,0.,12.0,0.,12.0,0.,12.0
1979-07-13 00:55:29.850 ,6,0,0.,12.0,0.,12.0,0.,12.0,0.,12.0
1979-07-13 00:55:41.850 ,6,0,0.,12.0,0.,12.0,0.,12.0,0.,12.0
1979-07-13 00:55:53.850 ,6,0,0.,12.0,0.,12.0,0.,12.0,0.,12.0
1979-07-13 00:56:05.850 ,5,0,0.,12.0,0.,12.0,0.,12.0,0.,12.0
1979-07-13 00:56:17.850 ,5,0,0.,12.0,0.,12.0,0.,12.0,0.,12.0
1979-07-13 00:56:29.850 ,5,0,0.,12.0,0.,12.0,0.,12.0,0.,12.0
1979-07-13 00:56:41.850 ,5,0,0.,12.0,0.,12.0,0.,12.0,0.,12.0
1979-07-13 00:56:53.850 ,4,0,0.,12.0,0.,12.0,0.,12.0,0.,12.0
1979-07-13 00:57:05.850 ,4,0,0.,12.0,0.,12.0,0.,12.0,0.,12.0
1979-07-13 00:57:17.850 ,4,0,0.,12.0,0.,12.0,0.,12.0,0.,12.0
1979-07-13 00:57:29.850 ,4,0,0.,12.0,0.,12.0,0.,12.0,0.,12.0
1979-07-13 00:57:41.850 ,3,0,0.,12.0,0.,12.0,0.,12.0,0.,12.0
1979-07-13 00:57:53.850 ,3,0,0.,12.0,0.,12.0,0.,12.0,0.,12.0
1979-07-13 00:58:05.850 ,3,0,0.,12.0,0.,12.0,0.,12.0,0.,12.0
1979-07-13 00:58:17.850 ,3,0,0.,12.0,0.,12.0,0.,12.0,0.,12.0
1979-07-13 00:58:29.850 ,2,0,0.,12.0,0.,12.0,0.,12.0,0.,12.0
1979-07-13 00:58:41.850 ,2,0,1.,12.0,0.,12.0,0.,12.0,0.,12.0
1979-07-13 00:58:53.850 ,2,0,0.,12.0,0.,12.0,0.,12.0,0.,12.0
1979-07-13 00:59:05.850 ,2,0,0.,12.0,0.,12.0,0.,12.0,0.,12.0
1979-07-13 00:59:17.850 ,1,0,0.,12.0,0.,12.0,0.,12.0,0.,12.0
1979-07-13 00:59:29.850 ,1,0,1.,12.0,0.,12.0,0.,12.0,0.,12.0
1979-07-13 00:59:41.850 ,1,0,0.,12.0,0.,12.0,0.,12.0,0.,12.0
1979-07-13 00:59:53.850 ,1,0,0.,12.0,0.,12.0,0.,12.0,0.,12.0
1979-07-13 01:00:05.850 ,0,0,0.,12.0,0.,12.0,0.,12.0,0.,12.0
1979-07-13 01:00:17.850 ,0,0,0.,12.0,0.,12.0,0.,12.0,0.,12.0
1979-07-13 01:00:29.860 ,0,0,0.,12.0,0.,12.0,0.,12.0,0.,12.0
1979-07-13 01:00:41.860 ,0,0,0.,12.0,0.,12.0,0.,12.0,0.,12.0
1979-07-13 01:00:53.860 ,0,0,0.,12.0,0.,12.0,0.,12.0,0.,12.0
1979-07-13 01:01:05.860 ,0,0,0.,12.0,0.,12.0,0.,12.0,0.,12.0
1979-07-13 01:01:17.860 ,0,0,0.,12.0,0.,12.0,0.,12.0,0.,12.0
1979-07-13 01:01:29.860 ,0,0,0.,12.0,0.,12.0,0.,12.0,0.,12.0
1979-07-13 01:01:41.860 ,1,0,0.,12.0,0.,12.0,0.,12.0,0.,12.0
1979-07-13 01:01:53.860 ,1,0,1.,12.0,0.,12.0,0.,12.0,0.,12.0
1979-07-13 01:02:05.860 ,1,0,0.,12.0,0.,12.0,0.,12.0,0.,12.0
1979-07-13 01:02:17.860 ,1,0,0.,12.0,0.,12.0,0.,12.0,0.,12.0
1979-07-13 01:02:29.850 ,2,0,0.,12.0,0.,12.0,0.,12.0,0.,12.0
1979-07-13 01:02:41.860 ,2,0,0.,12.0,0.,12.0,0.,12.0,1.,12.0
1979-07-13 01:02:53.850 ,2,0,0.,12.0,0.,12.0,0.,12.0,0.,12.0
1979-07-13 01:03:05.850 ,2,0,0.,12.0,0.,12.0,0.,12.0,0.,12.0
1979-07-13 01:03:17.850 ,3,0,1.,12.0,0.,12.0,0.,12.0,0.,12.0
1979-07-13 01:03:29.860 ,3,0,1.,12.0,0.,12.0,0.,12.0,0.,12.0
1979-07-13 01:03:41.850 ,3,0,0.,12.0,0.,12.0,0.,12.0,0.,12.0
1979-07-13 01:03:53.860 ,3,0,0.,12.0,0.,12.0,0.,12.0,0.,12.0
1979-07-13 01:04:05.850 ,4,0,1.,12.0,0.,12.0,0.,12.0,0.,12.0
1979-07-13 01:04:17.860 ,4,0,0.,12.0,0.,12.0,0.,12.0,0.,12.0
1979-07-13 01:04:29.860 ,4,0,0.,12.0,0.,12.0,0.,12.0,0.,12.0
1979-07-13 01:04:41.860 ,4,0,0.,12.0,0.,12.0,0.,12.0,0.,12.0
1979-07-13 01:04:53.860 ,5,0,0.,12.0,0.,12.0,0.,12.0,0.,12.0
1979-07-13 01:05:05.860 ,5,0,0.,12.0,0.,12.0,0.,12.0,0.,12.0
1979-07-13 01:05:17.860 ,5,0,0.,12.0,0.,12.0,0.,12.0,0.,12.0
1979-07-13 01:05:29.860 ,5,0,0.,12.0,0.,12.0,0.,12.0,0.,12.0
1979-07-13 01:05:41.860 ,6,0,0.,12.0,0.,12.0,0.,12.0,0.,12.0
1979-07-13 01:05:53.860 ,6,0,0.,12.0,0.,12.0,0.,12.0,0.,12.0
1979-07-13 01:06:05.860 ,6,0,1.,12.0,0.,12.0,0.,12.0,0.,12.0
1979-07-13 01:06:17.860 ,6,0,0.,12.0,0.,12.0,0.,12.0,0.,12.0
1979-07-13 01:06:29.860 ,7,0,0.,12.0,0.,12.0,0.,12.0,0.,12.0
1979-07-13 01:06:41.860 ,7,0,0.,12.0,0.,12.0,0.,12.0,0.,12.0
1979-07-13 01:06:53.860 ,7,0,0.,12.0,0.,12.0,0.,12.0,0.,12.0
1979-07-13 01:07:05.860 ,7,0,0.,12.0,0.,12.0,0.,12.0,0.,12.0
1979-07-13 01:07:17.860 ,3,1,0.,12.0,0.,12.0,0.,12.0,0.,12.0
1979-07-13 01:07:29.860 ,3,1,0.,12.0,0.,12.0,0.,12.0,0.,12.0
1979-07-13 01:07:41.860 ,0,1,0.,12.0,0.,12.0,0.,12.0,0.,12.0
1979-07-13 01:07:53.860 ,0,1,0.,12.0,0.,12.0,0.,12.0,0.,12.0
1979-07-13 01:08:05.860 ,4,1,0.,12.0,0.,12.0,0.,12.0,0.,12.0
1979-07-13 01:08:17.860 ,4,1,0.,12.0,0.,12.0,0.,12.0,0.,12.0
1979-07-13 01:08:29.860 ,7,1,0.,12.0,0.,12.0,0.,12.0,0.,12.0
1979-07-13 01:08:41.860 ,7,1,0.,12.0,0.,12.0,0.,12.0,0.,12.0
1979-07-13 01:08:53.850 ,3,1,0.,12.0,0.,12.0,0.,12.0,0.,12.0
1979-07-13 01:09:05.850 ,3,1,1.,12.0,0.,12.0,0.,12.0,0.,12.0
1979-07-13 01:09:17.850 ,0,1,0.,12.0,0.,12.0,0.,12.0,0.,12.0
1979-07-13 01:09:29.850 ,0,1,0.,12.0,0.,12.0,0.,12.0,0.,12.0
1979-07-13 01:09:41.850 ,4,1,0.,12.0,0.,12.0,0.,12.0,0.,12.0
1979-07-13 01:09:53.850 ,4,1,0.,12.0,0.,12.0,0.,12.0,0.,12.0
1979-07-13 01:10:05.850 ,7,1,1.,12.0,0.,12.0,0.,12.0,0.,12.0
1979-07-13 01:10:17.850 ,7,1,0.,12.0,0.,12.0,0.,12.0,0.,12.0
1979-07-13 01:10:29.850 ,3,1,0.,12.0,0.,12.0,0.,12.0,0.,12.0
1979-07-13 01:10:41.850 ,3,1,0.,12.0,0.,12.0,0.,12.0,0.,12.0
1979-07-13 01:10:53.850 ,0,1,1.,12.0,0.,12.0,0.,12.0,0.,12.0
1979-07-13 01:11:05.850 ,0,1,0.,12.0,0.,12.0,0.,12.0,0.,12.0
1979-07-13 01:11:17.850 ,4,1,0.,12.0,0.,12.0,0.,12.0,0.,12.0
1979-07-13 01:11:29.850 ,4,1,0.,12.0,0.,12.0,0.,12.0,0.,12.0
1979-07-13 01:11:41.850 ,7,1,0.,12.0,0.,12.0,0.,12.0,0.,12.0
1979-07-13 01:11:53.850 ,7,1,0.,12.0,0.,12.0,0.,12.0,0.,12.0
1979-07-13 01:12:05.850 ,3,1,0.,12.0,0.,12.0,0.,12.0,0.,12.0
1979-07-13 01:12:17.850 ,3,1,1.,12.0,0.,12.0,0.,12.0,0.,12.0
1979-07-13 01:12:29.850 ,0,1,0.,12.0,0.,12.0,0.,12.0,0.,12.0
1979-07-13 01:12:41.850 ,0,1,1.,12.0,0.,12.0,0.,12.0,0.,12.0
1979-07-13 01:12:53.850 ,4,1,0.,12.0,0.,12.0,0.,12.0,0.,12.0
1979-07-13 01:13:05.850 ,4,1,0.,12.0,0.,12.0,0.,12.0,0.,12.0
1979-07-13 01:13:17.850 ,7,1,0.,12.0,0.,12.0,0.,12.0,0.,12.0
1979-07-13 01:13:29.850 ,7,1,0.,12.0,0.,12.0,0.,12.0,0.,12.0
1979-07-13 01:13:41.850 ,3,1,0.,12.0,0.,12.0,0.,12.0,0.,12.0
1979-07-13 01:13:53.850 ,3,1,0.,12.0,0.,12.0,0.,12.0,0.,12.0
1979-07-13 01:14:05.850 ,0,1,0.,12.0,0.,12.0,0.,12.0,0.,12.0
1979-07-13 01:14:17.850 ,0,1,1.,12.0,0.,12.0,0.,12.0,0.,12.0
1979-07-13 01:14:29.850 ,4,1,0.,12.0,0.,12.0,0.,12.0,0.,12.0
1979-07-13 01:14:41.850 ,4,1,0.,12.0,0.,12.0,0.,12.0,0.,12.0
1979-07-13 01:14:53.850 ,7,1,2.,12.0,0.,12.0,0.,12.0,0.,12.0
1979-07-13 01:15:05.850 ,7,1,0.,12.0,0.,12.0,0.,12.0,0.,12.0
1979-07-13 01:15:17.850 ,3,1,0.,12.0,0.,12.0,0.,12.0,0.,12.0
1979-07-13 01:15:29.850 ,3,1,0.,12.0,0.,12.0,0.,12.0,0.,12.0
1979-07-13 01:15:41.850 ,0,1,0.,12.0,0.,12.0,0.,12.0,0.,12.0
1979-07-13 01:15:53.850 ,0,1,1.,12.0,0.,12.0,0.,12.0,0.,12.0
1979-07-13 01:16:05.850 ,4,1,0.,12.0,0.,12.0,0.,12.0,0.,12.0
1979-07-13 01:16:17.850 ,4,1,0.,12.0,0.,12.0,0.,12.0,0.,12.0
1979-07-13 01:16:29.850 ,7,1,0.,12.0,0.,12.0,0.,12.0,0.,12.0
1979-07-13 01:16:41.850 ,7,1,0.,12.0,0.,12.0,0.,12.0,0.,12.0
1979-07-13 01:16:53.850 ,3,1,0.,12.0,0.,12.0,0.,12.0,0.,12.0
1979-07-13 01:17:05.850 ,3,1,0.,12.0,0.,12.0,0.,12.0,0.,12.0
1979-07-13 01:17:17.850 ,0,1,0.,12.0,0.,12.0,0.,12.0,0.,12.0
1979-07-13 01:17:29.850 ,0,1,0.,12.0,0.,12.0,0.,12.0,0.,12.0